RH
18 18 18 18 18 18 18 17 17 17 17 16 16 16 16 16 16 16 15 15 15 15 14 14 14 14 13 13 13 12 12 12 12 12 13 14 15 15 16 16 16 15 15 14 13 12 11 10 10 10 9 9 9 8 8 8 7 7 6 6 6 6 5 5 5 5 5 5 4 4 4 4 4 4 4 4 3 3 3 3 3 2 2 2 2 2
20 20 20 19 19 19 19 18 18 18 18 18 17 17 17 17 16 16 16 16 16 15 15 15 15 14 14 14 13 13 13 12 12 12 11 12 12 13 13 14 15 16 16 16 15 14 13 12 11 11 10 10 9 9 9 8 8 8 7 7 7 6 6 6 6 5 5 5 5 5 5 5 4 4 4 4 4 4 3 3 3 3 3 2 2 2
23 22 22 21 21 21 20 20 20 19 19 19 18 18 18 17 17 17 17 16 16 16 16 15 15 15 14 14 14 14 13 13 13 12 12 11 11 11 11 12 12 13 14 15 15 16 15 15 14 13 12 11 10 10 10 9 9 8 8 8 7 7 7 7 6 6 6 6 6 5 5 5 5 5 5 5 4 4 4 4 3 3 3 3 3 2
24 24 23 23 22 22 22 21 21 21 20 20 20 19 19 18 18 18 17 17 17 17 16 16 16 15 15 15 14 14 14 13 13 13 12 12 12 11 11 11 11 11 11 12 13 14 14 15 15 15 15 14 13 12 11 10 10 9 9 9 8 8 8 7 7 7 7 6 6 6 6 6 6 5 5 5 5 5 4 4 4 4 3 3 3 3
25 24 24 24 23 23 23 22 22 22 21 21 21 20 20 19 19 18 18 18 18 17 17 16 16 16 15 15 15 14 14 14 13 13 13 12 12 12 12 11 11 11 10 11 11 11 12 13 13 14 15 15 15 14 14 13 12 11 10 10 9 9 9 8 8 8 7 7 7 7 7 6 6 6 6 6 6 5 5 5 5 4 4 4 3 3
25 25 24 24 24 23 23 23 23 23 22 22 21 21 21 20 20 19 19 19 18 18 17 17 17 16 16 16 15 15 15 14 14 14 13 13 13 12 12 12 11 11 11 11 10 10 10 11 11 12 13 13 14 15 15 15 14 13 12 11 11 10 10 9 9 9 9 8 8 8 7 7 7 7 7 6 6 6 6 6 5 5 5 4 4 4
25 25 24 24 24 24 23 23 23 23 23 22 22 22 21 21 21 20 20 19 19 19 18 18 18 17 17 16 16 16 15 15 14 14 14 13 13 13 12 12 12 12 11 11 11 11 10 10 10 10 11 11 12 13 14 14 15 15 15 14 13 12 11 10 10 10 9 9 9 9 8 8 8 8 7 7 7 7 6 6 6 6 5 5 5 4
25 25 24 24 24 24 23 23 23 23 23 23 23 22 22 22 21 21 21 20 20 20 19 19 18 18 18 17 17 16 16 15 15 15 14 14 14 13 13 13 12 12 12 11 11 11 11 11 10 10 10 10 10 11 11 12 13 14 15 15 15 15 14 13 12 11 10 10 10 10 10 9 9 9 8 8 8 7 7 7 7 6 6 6 5 5
26 25 25 24 24 24 24 23 23 23 23 23 23 23 23 22 22 22 21 21 21 20 20 20 19 19 18 18 18 17 17 16 16 15 15 15 14 14 14 13 13 13 12 12 12 11 11 11 11 10 10 10 10 10 10 11 11 12 13 14 14 15 16 15 15 14 13 12 11 11 10 10 10 10 9 9 9 8 8 8 7 7 7 7 6 6
26 26 25 25 24 24 24 24 24 23 23 23 23 23 23 23 23 22 22 22 21 21 21 20 20 20 19 19 18 18 18 17 17 16 16 16 15 15 14 14 14 13 13 13 12 12 12 11 11 11 11 10 10 10 10 10 11 11 11 12 12 13 14 15 16 16 15 15 14 13 12 11 11 11 10 10 10 9 9 9 8 8 8 7 7 7
26 26 25 25 25 24 24 24 24 24 23 23 23 23 23 23 23 23 22 22 22 21 21 21 20 20 20 19 19 19 18 18 18 17 17 16 16 16 15 15 14 14 14 13 13 12 12 12 12 11 11 11 10 10 10 10 10 10 10 11 11 12 12 13 14 15 16 16 16 15 14 13 13 12 12 11 11 10 10 10 9 9 8 8 8 7
26 26 26 25 25 25 24 24 24 24 23 23 23 23 23 23 22 22 22 22 22 22 21 21 21 20 20 20 19 19 19 18 18 18 17 17 17 16 16 15 15 15 14 14 13 13 13 12 12 12 11 11 11 10 10 10 10 10 10 10 10 11 11 11 12 13 14 15 16 17 17 16 15 14 13 12 12 12 11 11 10 10 9 9 9 8
26 26 26 26 25 25 24 24 24 24 23 23 23 23 23 22 22 22 22 22 22 22 21 21 21 20 20 20 19 19 19 18 18 18 18 17 17 17 16 16 15 15 15 14 14 13 13 13 12 12 12 11 11 11 10 10 10 10 10 10 10 10 10 11 11 12 12 13 14 15 17 17 17 17 16 15 14 13 12 12 12 11 11 10 10 9
27 27 26 26 26 25 25 25 24 24 24 23 23 23 22 22 22 22 22 21 21 21 21 21 21 20 20 20 19 19 18 18 18 18 17 17 17 16 16 16 15 15 15 14 14 14 13 13 13 12 12 12 11 11 11 10 10 10 10 10 10 10 10 10 10 11 11 12 12 13 14 16 17 18 18 17 16 15 14 13 13 13 12 11 11 10
28 28 27 27 26 26 26 25 25 24 24 23 23 23 22 22 22 21 21 21 21 21 20 20 20 20 20 19 19 18 18 18 18 18 17 17 17 16 16 16 15 15 15 14 14 14 13 13 13 12 12 12 11 11 11 11 10 10 10 10 10 9 9 9 10 10 10 11 11 12 12 13 15 16 17 18 18 18 17 15 15 14 13 13 12 12
29 29 29 28 27 27 26 26 25 25 24 24 23 23 22 22 21 21 21 20 20 20 20 20 20 20 19 19 18 18 18 18 17 17 17 17 16 16 16 15 15 15 15 14 14 14 13 13 13 12 12 12 12 11 11 11 10 10 10 10 10 9 9 9 9 9 9 10 10 10 11 12 13 14 15 16 17 18 18 18 17 16 15 15 14 13
31 30 30 29 29 28 27 26 26 25 25 24 23 23 22 21 21 20 20 20 19 19 19 19 19 19 19 18 18 18 17 17 17 17 17 16 16 16 15 15 15 15 15 14 14 14 13 13 13 12 12 12 12 11 11 11 10 10 10 10 10 9 9 9 9 9 9 9 9 10 10 10 11 12 13 14 15 16 18 18 19 18 17 16 16 15
33 32 31 31 30 29 28 27 26 26 25 24 23 23 22 21 21 20 20 19 19 18 18 18 18 18 18 18 18 17 17 17 16 16 16 16 16 16 15 15 15 15 14 14 14 13 13 13 13 12 12 12 12 11 11 11 10 10 10 10 10 9 9 9 9 9 9 9 9 9 9 9 10 10 11 12 13 14 15 17 18 19 19 19 18 17
34 33 32 32 31 30 28 27 26 26 25 24 23 22 22 21 21 20 19 19 18 18 18 17 17 17 17 17 17 17 16 16 16 16 15 16 16 15 15 15 14 14 14 14 14 13 13 13 13 12 12 12 12 11 11 11 10 10 10 10 10 9 9 9 9 9 9 8 8 8 8 9 9 9 10 11 11 12 13 14 16 17 19 20 20 19
35 34 33 32 31 30 29 28 27 26 25 24 23 23 22 21 20 20 19 19 18 18 17 17 17 17 16 16 16 16 16 15 15 15 15 15 15 15 15 14 14 14 14 14 13 13 13 13 13 12 12 12 12 11 11 11 11 10 10 10 10 10 9 9 9 9 9 9 8 8 8 8 8 9 9 10 10 11 12 13 14 15 17 18 19 20
37 35 34 33 32 30 29 28 27 26 25 24 24 23 22 21 21 20 19 19 18 18 17 17 17 16 16 16 16 16 15 15 15 14 14 14 14 15 15 14 14 14 14 14 13 13 13 13 13 12 12 12 12 12 11 11 11 11 10 10 10 10 10 9 9 9 9 9 9 9 9 8 8 8 9 9 9 10 10 11 12 13 14 16 18 19
38 37 35 34 33 31 30 29 28 27 26 25 24 23 22 21 21 20 19 19 18 18 17 17 17 16 16 16 16 16 15 15 15 14 14 14 14 14 15 14 14 14 14 14 13 13 13 13 13 13 12 12 12 12 12 12 11 11 11 10 10 10 10 10 10 9 9 9 9 9 9 9 9 9 8 9 9 9 10 10 11 12 13 14 15 17
40 38 37 35 34 32 31 30 29 28 27 26 25 24 23 22 21 20 20 19 18 18 17 17 17 17 16 16 16 16 15 15 15 14 14 14 14 14 14 14 14 14 14 14 14 13 13 13 13 13 12 12 12 12 12 12 12 11 11 11 11 10 10 10 10 10 10 9 9 9 9 9 9 9 9 9 9 9 9 10 10 11 12 13 14 15
41 40 38 37 35 34 32 31 30 29 27 26 25 24 23 22 22 21 20 19 19 18 18 17 17 17 16 16 16 16 16 15 15 14 14 14 14 14 14 14 14 14 13 14 14 14 13 13 13 13 13 13 12 12 12 12 12 12 11 11 11 11 10 10 10 10 10 10 10 10 10 9 9 9 9 9 9 9 9 9 10 10 11 12 13 14
42 41 39 38 36 34 33 32 30 29 28 26 25 24 23 22 22 21 20 19 19 18 18 17 17 16 16 16 16 16 16 15 15 15 14 14 14 14 14 14 14 13 13 13 14 14 14 14 13 13 13 13 13 13 12 12 12 12 12 11 11 11 11 11 10 10 10 10 10 10 10 10 10 10 9 9 9 9 9 9 9 10 10 11 12 13
43 41 40 38 36 35 33 32 30 29 27 26 25 24 23 22 21 21 20 19 18 18 17 17 16 16 16 16 16 16 16 16 16 15 15 15 14 14 14 14 14 13 13 13 13 14 14 14 14 14 14 14 13 13 13 13 12 12 12 12 11 11 11 11 11 10 10 10 10 10 10 10 10 10 9 9 9 9 9 9 9 9 10 10 11 11
43 41 39 37 36 34 32 31 29 28 27 25 24 23 22 21 21 20 19 19 18 18 17 17 17 16 16 16 16 16 16 16 16 16 16 15 15 14 14 14 14 14 13 13 13 13 14 14 14 14 14 14 14 14 13 13 13 13 12 12 12 11 11 11 11 11 11 10 10 10 10 10 10 10 9 9 9 9 9 9 9 9 9 10 10 11
42 40 38 36 34 32 31 29 28 26 25 24 23 22 21 21 20 19 19 18 18 17 17 17 17 16 16 16 16 16 16 17 17 17 16 16 16 15 15 15 14 14 14 14 13 13 13 14 14 14 14 14 14 14 14 14 13 13 13 12 12 12 11 11 11 11 11 11 11 10 10 10 10 10 10 9 9 9 9 9 9 9 9 9 10 10
40 38 35 34 32 30 29 27 26 25 24 23 22 21 20 20 19 19 18 18 18 17 17 17 17 17 16 16 16 16 16 17 17 17 17 17 16 16 15 15 15 14 14 14 13 13 13 13 14 14 14 14 14 14 14 14 14 13 13 13 12 12 12 12 11 11 11 11 11 11 11 11 10 10 10 10 9 9 9 9 9 9 9 9 9 10
37 35 33 31 29 28 27 26 25 24 23 22 21 20 20 19 19 18 18 18 18 17 17 17 17 17 17 16 16 16 17 17 17 18 18 17 17 16 16 16 15 15 15 14 14 13 13 13 13 13 14 14 14 14 14 14 14 14 14 13 13 12 12 12 12 12 12 12 12 12 12 11 11 11 10 10 10 10 9 9 9 9 9 9 9 9
34 32 30 29 27 26 25 24 24 23 22 22 21 20 20 19 19 18 18 18 18 18 18 18 17 17 17 17 17 18 17 17 18 18 18 18 17 17 16 16 16 16 15 15 14 14 13 12 12 13 13 13 14 14 14 14 14 14 14 14 13 13 13 13 12 12 12 12 12 12 12 12 12 12 12 11 11 10 10 10 9 9 9 9 9 9
32 30 28 27 26 25 25 24 24 23 23 22 22 21 20 20 19 19 19 18 18 18 18 18 18 18 18 18 18 18 18 19 18 18 18 18 18 17 17 17 17 16 16 16 15 14 14 13 12 12 12 13 13 13 14 14 14 14 14 14 14 13 13 13 13 13 13 13 13 13 13 13 13 13 13 12 12 12 11 11 10 10 10 9 9 9
31 29 27 27 26 26 25 25 25 25 25 24 24 23 22 22 21 20 20 20 20 20 20 20 20 20 19 19 19 19 19 20 20 19 19 19 19 18 18 18 18 17 17 16 16 15 14 14 13 12 12 12 12 13 13 14 14 14 14 14 14 14 14 14 14 14 14 14 14 14 14 14 14 14 14 14 13 13 13 12 12 12 11 11 10 10
31 29 29 28 28 28 28 28 28 28 28 27 27 26 25 25 24 23 23 22 22 22 22 23 23 23 22 22 21 21 21 21 21 21 21 20 20 20 19 19 19 18 18 18 17 16 15 14 14 13 13 12 12 13 13 13 13 14 14 14 14 14 14 14 14 14 14 14 14 15 15 15 15 15 15 15 15 15 14 14 14 13 13 13 12 11
33 32 32 32 33 33 33 32 32 32 32 31 30 30 29 28 28 27 27 26 26 26 25 25 25 25 25 25 25 24 24 24 23 23 22 22 22 21 21 20 20 19 19 18 18 17 16 16 15 14 14 13 13 13 13 13 13 13 13 14 14 14 14 14 14 14 14 15 15 15 15 16 16 16 16 16 16 16 16 16 16 15 15 15 14 14
37 37 38 39 39 39 39 38 38 37 37 36 35 34 34 33 33 32 32 31 30 29 29 28 28 27 27 27 27 27 26 26 25 25 24 24 23 23 22 21 21 20 20 19 19 18 18 17 16 15 15 14 14 14 13 13 14 14 14 14 14 14 14 14 15 15 15 15 15 16 16 16 16 17 17 17 17 18 18 18 18 17 17 17 17 16
43 44 45 45 46 45 45 44 43 43 42 41 40 39 39 38 38 37 36 35 34 33 32 32 31 30 29 28 28 28 27 27 26 26 25 25 24 23 23 22 22 21 21 21 20 19 18 18 17 16 16 15 15 15 14 14 14 14 14 14 14 14 15 15 15 15 16 16 16 16 16 17 17 17 17 18 18 18 18 19 19 19 19 19 19 18
51 51 51 52 51 51 51 50 49 47 47 46 45 44 43 43 42 41 40 39 37 36 35 34 33 32 31 30 29 28 28 27 27 26 26 25 25 24 24 23 23 23 23 22 21 21 20 19 18 18 17 16 16 15 15 15 15 14 14 15 15 15 15 16 16 16 17 17 17 17 17 17 17 17 17 18 18 18 19 19 20 20 21 21 21 21
57 57 57 57 56 56 55 53 52 51 50 49 48 47 46 45 44 43 41 40 38 37 35 34 33 32 31 30 29 28 27 26 26 26 25 25 25 25 25 25 25 24 24 24 23 22 21 21 20 19 18 18 17 16 16 16 16 15 15 15 16 16 16 17 17 18 18 18 18 18 18 18 18 18 18 18 18 18 19 19 20 20 21 22 22 22
62 61 61 60 59 58 57 55 54 52 51 50 49 47 46 44 43 41 39 38 36 35 34 33 31 30 29 29 28 27 26 26 25 25 25 26 26 26 26 26 26 26 26 25 24 24 23 22 21 20 20 19 18 18 17 17 17 17 17 17 17 17 17 18 19 19 19 19 20 20 19 19 19 19 19 19 19 19 19 19 19 19 20 21 22 22
65 64 63 61 60 58 56 54 53 51 49 48 46 44 42 40 38 37 35 34 33 32 31 30 29 28 27 27 26 25 25 25 25 25 26 26 27 27 28 28 28 27 27 27 26 25 25 24 23 22 21 21 20 20 19 19 19 19 19 19 19 19 19 20 20 20 21 21 21 21 21 21 21 20 20 20 20 19 19 19 19 19 19 20 20 21
66 64 62 60 58 55 53 51 49 47 45 43 41 39 37 35 34 32 31 30 29 29 28 27 26 26 25 25 25 25 25 25 25 26 26 27 28 28 29 29 29 30 30 29 29 28 27 27 26 26 25 24 24 23 22 21 21 22 22 22 22 22 22 22 22 23 23 23 23 23 23 23 22 22 21 21 21 20 20 20 20 20 20 20 19 19
61 59 56 54 51 49 47 45 43 41 39 37 36 34 33 31 30 28 27 26 26 25 25 24 24 24 24 24 24 24 25 25 26 27 28 28 29 31 32 32 32 33 33 33 32 31 30 30 30 29 29 28 28 27 26 25 25 25 25 25 25 25 25 24 24 24 24 24 24 24 24 23 23 22 22 21 21 21 21 20 20 20 20 20 20 19
53 51 48 46 44 42 40 39 37 36 35 33 32 31 29 27 26 25 24 23 22 22 22 22 22 22 22 23 24 25 26 26 27 28 29 31 32 33 34 35 35 36 36 36 36 35 34 33 33 32 32 31 30 29 28 28 28 27 27 26 26 26 25 25 24 24 23 23 23 23 23 22 22 21 21 21 20 20 20 20 20 20 20 20 19 19
45 43 42 40 38 37 36 35 34 33 32 31 29 28 26 25 24 23 22 21 21 21 21 21 21 21 22 22 24 25 26 27 28 30 31 33 34 35 37 38 38 38 38 38 37 36 36 35 34 33 32 31 30 29 28 28 27 26 26 25 25 24 23 23 22 22 21 21 20 20 20 19 19 19 18 18 18 18 18 18 18 18 18 18 18 18
41 39 38 36 35 34 33 33 32 32 31 29 28 26 25 24 23 22 21 21 20 20 20 21 21 22 23 24 25 26 27 28 30 31 33 35 36 37 38 39 39 39 38 38 37 36 35 34 33 31 30 29 28 27 26 25 24 23 23 22 21 20 20 19 19 18 18 18 17 17 17 17 16 16 16 15 15 15 15 15 15 15 15 15 15 15
38 37 36 35 34 33 33 33 33 32 31 29 27 26 25 24 23 22 21 21 20 20 20 21 22 23 25 26 27 28 30 30 32 33 35 36 37 38 38 39 38 38 37 36 35 33 32 31 29 28 26 26 25 24 23 22 21 20 19 19 18 18 17 17 17 16 16 16 15 15 15 15 14 14 14 13 13 13 13 13 13 12 12 12 12 12
38 37 36 35 35 34 34 34 34 33 31 29 28 27 26 25 24 23 22 21 21 21 21 22 23 25 26 27 29 30 32 32 33 34 35 35 36 36 36 36 35 35 34 32 31 29 28 27 26 25 23 22 22 21 20 20 19 18 18 18 17 17 16 16 16 16 15 15 15 15 14 14 14 13 13 13 12 12 11 11 11 11 10 10 10 10
39 38 37 36 36 36 36 36 35 34 32 31 29 28 27 26 25 25 24 23 22 22 22 23 25 26 28 29 30 31 32 33 33 33 33 33 33 33 32 32 31 30 29 27 26 26 25 24 23 22 22 22 21 20 20 19 19 19 19 18 17 17 16 16 16 15 15 15 14 14 14 13 13 12 12 11 11 10 10 9 9 9 8 8 8 8
41 40 39 39 39 38 38 37 36 35 34 32 31 30 29 28 27 26 26 25 24 24 24 25 26 27 28 29 30 30 30 30 30 30 29 29 28 28 27 26 25 25 24 24 23 23 23 23 22 22 21 22 22 22 21 20 20 19 19 18 17 17 16 15 15 14 13 13 12 12 12 11 11 10 10 9 9 8 8 7 7 7 7 6 6 6
43 42 41 41 41 40 40 39 38 37 35 35 34 33 32 30 29 28 27 26 26 25 24 25 25 26 26 26 26 26 26 25 25 24 23 23 23 22 22 22 22 22 22 22 23 23 23 23 23 22 21 21 21 21 21 20 19 18 18 16 15 15 14 13 12 12 11 11 11 10 10 10 9 9 9 9 8 8 7 7 7 6 6 6 6 6
Wind_Speed
37 37 37 37 37 37 37 37 37 37 37 37 37 37 37 37 37 37 37 36 36 36 36 36 35 35 35 35 34 34 34 34 33 34 33 34 34 34 34 34 34 34 34 35 35 35 36 36 37 37 38 38 39 39 39 40 40 40 40 40 40 40 40 40 40 39 39 39 39 38 38 38 39 39 39 39 39 39 39 39 39 39 39 39 39 39
37 37 37 38 38 38 38 38 38 39 39 39 39 39 39 39 39 39 39 38 38 38 38 38 38 37 37 37 37 36 36 36 35 35 35 35 35 35 35 35 35 35 35 36 36 36 36 37 37 38 38 39 39 40 40 40 41 41 41 41 41 41 41 41 41 41 41 40 40 40 40 40 40 40 40 40 40 40 40 40 40 40 40 40 40 40
36 36 37 37 37 37 38 38 39 39 39 40 40 40 40 40 40 40 40 40 40 40 40 39 39 39 39 39 39 38 38 38 37 37 37 37 37 36 36 36 36 36 37 37 37 37 37 38 38 38 39 39 40 40 40 41 41 42 42 42 42 42 42 42 42 42 42 42 42 41 41 41 41 41 41 41 41 41 41 41 41 41 41 41 41 41
36 36 37 37 37 37 38 38 39 39 39 40 40 40 41 41 41 41 41 41 41 41 41 41 41 41 41 41 41 40 40 40 39 39 39 39 38 38 38 38 38 38 38 38 38 38 38 39 39 39 40 40 40 41 41 42 42 42 43 43 43 43 44 44 44 44 44 44 43 43 43 42 42 42 42 42 42 42 42 42 42 42 42 42 42 42
36 37 37 37 37 37 38 38 38 39 39 39 40 40 40 41 41 41 42 42 42 42 42 42 42 42 42 42 42 42 42 42 42 41 41 41 40 40 40 40 40 39 39 39 39 39 40 40 40 40 41 41 41 42 42 42 43 43 44 44 44 44 45 45 45 45 45 45 45 45 44 44 44 43 43 43 43 43 43 43 43 43 43 43 43 43
37 38 38 38 38 38 38 38 38 39 39 39 40 40 40 41 41 41 42 42 42 42 42 42 42 42 43 43 43 43 43 43 43 43 43 43 42 42 42 42 41 41 41 41 41 41 41 41 41 41 42 42 42 43 43 43 44 44 44 45 45 45 46 46 46 46 46 46 46 46 46 46 45 45 45 45 44 44 44 44 44 44 44 44 44 44
38 39 39 39 39 39 39 39 39 39 39 40 40 40 41 41 41 42 42 42 42 43 43 43 43 43 43 43 44 44 44 44 44 44 44 44 44 44 44 43 43 43 43 42 42 42 42 42 42 43 43 43 43 44 44 44 45 45 46 46 46 46 47 47 47 47 48 48 48 48 48 47 47 47 47 46 46 46 46 46 46 46 46 46 46 45
40 40 40 40 40 40 40 40 40 40 40 40 41 41 41 41 42 42 43 43 43 43 43 44 44 44 44 44 44 44 44 45 45 45 45 45 45 45 45 45 45 45 44 44 44 44 44 44 44 44 44 44 44 44 45 45 46 46 46 47 47 47 48 48 48 49 49 49 49 49 49 49 49 49 48 48 48 47 47 47 47 47 47 47 47 47
41 41 41 41 41 42 42 42 42 42 42 42 42 42 42 42 43 43 44 44 44 44 44 45 45 45 45 45 45 45 46 46 46 46 46 46 46 46 46 46 46 46 46 46 46 46 46 45 45 45 45 45 45 45 46 46 46 47 47 48 48 48 49 49 49 50 50 50 50 50 51 51 51 50 50 50 49 49 49 48 48 48 48 48 48 48
42 42 42 43 43 43 43 43 43 43 43 43 43 43 43 43 43 44 44 45 45 45 45 46 46 46 46 46 47 47 47 47 47 47 47 47 47 47 48 48 48 48 48 48 48 47 47 47 47 47 47 47 47 47 47 47 47 47 48 48 49 49 49 50 50 51 51 51 52 52 52 52 52 52 52 52 51 51 51 50 50 50 49 49 50 49
44 44 44 44 44 44 44 44 45 45 45 45 45 45 44 44 44 45 45 45 45 46 46 46 47 47 47 47 48 48 48 48 49 49 49 49 49 49 49 49 49 49 49 49 49 49 49 49 49 49 49 49 48 48 48 48 48 48 49 49 49 49 50 50 51 51 52 52 53 53 53 53 54 54 54 53 53 53 52 52 52 51 51 51 51 51
45 45 45 45 45 45 45 46 46 46 46 46 46 46 46 46 46 46 46 46 46 46 47 47 48 48 48 48 48 48 49 49 49 50 50 50 51 51 51 51 51 51 51 51 51 51 51 51 51 51 51 51 50 50 50 50 50 50 50 50 50 50 50 51 51 51 52 53 53 54 54 55 55 55 55 55 55 54 54 54 53 53 53 52 52 52
46 46 46 46 47 47 47 47 47 47 47 47 47 47 47 47 47 47 47 47 47 47 47 48 48 49 49 49 49 49 49 49 50 50 51 51 51 52 52 52 52 52 52 52 52 53 53 53 53 53 53 53 53 52 52 52 52 52 52 52 51 51 51 51 51 52 52 53 53 54 55 55 56 56 56 57 56 56 56 55 55 55 54 54 54 54
47 47 48 48 48 48 48 48 48 48 48 48 48 48 48 48 48 48 48 48 48 48 48 49 49 49 50 50 50 50 50 50 50 51 51 52 52 52 52 52 53 53 53 53 54 54 54 54 55 55 55 55 55 55 55 55 55 54 54 54 54 53 53 53 53 53 53 53 54 54 55 55 56 57 57 58 58 58 58 57 57 56 56 56 56 55
49 49 49 49 49 49 49 49 50 50 49 49 49 49 49 49 49 49 49 49 49 49 49 49 50 50 51 51 51 51 51 51 51 51 52 52 53 53 53 53 53 54 54 54 54 55 55 56 56 57 57 57 57 57 57 57 57 57 57 57 56 56 56 55 55 55 54 54 54 55 55 55 56 57 58 58 59 59 59 59 59 58 58 58 57 57
50 50 50 51 51 51 51 51 51 51 51 51 51 51 51 51 50 50 50 50 50 50 50 50 51 51 52 52 52 52 52 52 52 52 53 53 54 54 54 54 54 55 55 55 55 56 56 57 57 58 58 59 59 59 59 59 59 59 59 59 59 59 58 58 58 57 57 57 56 56 56 56 56 57 57 58 59 60 60 60 60 60 60 59 59 59
51 51 52 52 52 52 52 52 52 52 52 52 52 52 52 52 52 52 51 51 51 51 51 52 52 52 53 53 54 54 53 53 53 53 54 54 55 55 55 55 55 56 56 56 57 57 57 58 59 59 60 60 60 61 61 61 61 61 62 62 61 61 61 61 61 60 60 59 59 58 58 58 57 57 58 58 59 60 60 61 61 62 62 61 61 61
53 53 53 53 53 53 53 53 53 53 53 53 53 53 53 53 53 53 53 53 53 53 53 53 53 53 54 54 55 55 55 55 55 55 55 55 56 56 56 56 57 57 57 57 58 58 59 59 60 60 61 62 62 62 63 63 63 63 64 64 64 64 64 63 63 63 63 62 62 61 61 60 60 59 59 59 59 60 60 61 62 62 63 63 63 63
54 54 54 54 54 54 55 55 54 54 54 54 54 54 54 54 54 54 54 54 54 54 54 55 55 55 55 56 57 57 57 56 56 56 56 57 57 58 58 58 58 58 59 59 59 60 60 61 61 62 63 63 64 64 64 65 65 65 65 65 65 66 66 66 66 66 66 65 65 64 64 63 62 62 61 61 61 60 61 61 62 62 63 64 64 64
55 55 55 55 55 56 56 56 56 56 56 56 56 56 56 56 56 55 56 56 56 56 56 56 56 57 57 58 58 59 58 58 58 58 58 58 59 59 60 60 60 60 61 61 61 61 62 62 63 63 64 64 65 65 66 66 66 67 67 67 67 67 67 67 68 68 68 68 68 67 67 66 65 65 64 64 63 62 62 62 62 62 63 64 64 65
57 57 57 56 56 57 57 57 57 57 57 57 57 57 57 57 57 57 57 57 57 57 57 57 58 58 58 59 60 60 60 60 60 60 60 60 60 61 61 61 61 62 62 63 63 63 64 64 65 65 65 66 66 67 67 67 68 68 68 68 68 68 68 69 69 69 69 69 70 69 69 69 68 68 67 66 66 65 64 64 63 63 63 64 65 65
58 58 58 58 58 58 58 59 58 58 58 58 58 58 58 58 58 58 59 59 59 59 59 59 59 59 60 60 61 62 62 62 62 62 62 61 62 62 63 63 63 64 64 64 65 65 66 66 67 67 67 67 68 68 68 68 69 69 69 69 69 69 69 69 70 70 70 71 71 71 71 71 71 70 70 69 68 68 67 66 66 65 65 65 65 66
59 60 60 59 59 60 60 60 60 60 60 60 60 60 60 60 60 60 60 60 60 60 60 60 61 61 61 62 63 63 64 64 64 64 64 64 64 64 64 65 65 66 66 66 67 67 68 68 69 69 69 69 69 69 69 70 70 70 70 70 70 70 70 70 71 71 71 71 72 72 72 72 72 72 72 71 71 70 69 69 68 67 67 66 66 66
61 61 61 61 61 61 61 61 61 61 61 61 61 61 61 62 62 62 62 62 62 62 62 62 62 63 63 63 64 65 65 66 66 66 66 66 66 66 66 66 67 67 68 68 68 69 69 70 70 71 71 71 71 71 71 71 71 71 71 71 71 71 71 71 71 72 72 72 72 73 73 73 73 73 73 73 72 72 72 71 70 70 69 68 68 68
63 63 63 63 63 63 63 63 63 63 63 63 63 63 63 63 64 64 64 64 64 64 64 64 64 65 65 65 66 67 67 68 68 68 69 69 68 68 68 69 69 70 70 70 70 71 71 72 72 73 73 73 73 73 73 73 73 73 73 72 72 72 72 72 72 73 73 73 73 73 74 74 74 74 74 74 73 73 73 73 72 72 71 71 70 70
65 64 64 64 64 64 64 64 64 64 65 65 65 65 65 65 65 66 66 66 66 66 66 66 67 67 67 67 68 69 70 70 70 70 71 71 71 71 71 71 71 72 72 72 72 72 73 74 74 74 75 75 75 75 75 74 74 74 74 74 74 74 74 74 74 74 74 74 74 74 75 75 75 75 75 74 74 74 74 74 74 73 73 73 72 72
66 66 66 65 65 65 65 66 66 66 66 66 66 66 67 67 67 68 68 68 68 68 69 69 69 69 69 69 70 71 71 72 73 73 73 73 74 74 74 74 74 74 75 75 74 74 75 75 76 76 76 77 77 77 77 76 76 76 76 76 75 75 75 75 75 75 75 75 75 76 76 76 76 76 76 76 75 75 75 75 74 74 74 74 74 74
67 67 67 67 67 67 67 67 67 67 68 68 68 68 68 69 69 70 70 71 70 71 71 71 72 72 72 72 72 73 73 74 75 76 76 76 76 77 77 77 77 77 77 77 77 76 76 77 77 78 78 78 78 78 78 78 78 78 78 78 77 77 77 76 76 76 76 77 77 77 77 77 77 77 77 77 77 76 76 76 75 75 75 75 75 75
68 68 68 68 68 68 68 69 69 69 69 70 70 70 71 71 71 72 73 73 73 73 74 74 74 74 74 74 74 75 75 77 78 78 78 79 79 79 79 79 80 80 80 80 80 79 78 78 79 79 80 80 80 80 80 80 80 80 80 79 79 79 78 78 78 78 78 78 78 78 79 79 79 79 79 79 78 78 78 77 77 76 76 76 75 76
69 69 69 69 70 70 70 70 71 71 72 72 73 73 73 73 74 74 75 75 76 76 77 77 77 77 77 77 77 77 78 79 80 81 81 81 82 82 82 82 83 83 84 83 83 82 81 80 80 80 81 81 81 81 81 81 81 81 81 81 80 80 80 80 80 80 79 79 80 80 80 80 80 81 81 80 80 80 80 79 79 78 78 77 77 77
70 70 71 71 72 72 72 73 73 74 74 75 75 76 76 77 77 77 78 78 79 79 80 80 81 81 81 80 80 81 81 82 83 83 84 84 85 85 85 85 86 86 86 86 86 85 84 82 81 81 82 82 82 82 82 82 82 82 82 82 82 81 81 81 81 81 81 81 81 81 81 82 82 82 82 82 82 82 82 82 81 81 80 79 79 79
72 73 73 73 74 74 75 75 76 77 77 78 79 79 79 80 80 81 81 82 82 83 83 84 84 84 84 84 84 84 85 85 86 87 87 87 88 88 88 88 88 89 89 89 89 88 87 86 84 83 82 83 83 83 83 83 83 84 83 83 83 83 83 83 83 83 83 83 83 83 83 83 83 83 83 84 84 84 84 84 83 83 82 82 81 81
74 75 75 76 76 77 78 78 79 80 80 81 82 82 83 83 84 84 85 85 86 86 87 87 87 88 88 87 87 87 88 89 90 90 90 91 91 91 91 91 91 92 92 91 91 91 90 89 87 86 84 84 84 84 84 84 85 85 84 84 84 84 84 84 84 84 84 84 84 84 84 85 85 85 85 85 85 85 85 85 85 85 85 84 84 83
77 77 78 78 79 80 81 81 82 83 84 85 85 86 86 87 87 88 88 89 89 90 90 90 91 91 91 91 91 91 91 92 93 93 94 94 94 95 94 94 94 94 94 94 93 93 92 91 90 88 87 86 85 85 85 86 86 86 86 85 85 85 85 85 85 85 86 86 86 86 86 86 86 86 86 86 86 86 86 87 87 87 87 86 86 86
79 80 80 81 82 83 83 84 85 86 87 87 88 89 89 90 90 91 91 92 92 93 93 94 94 94 94 94 94 94 94 95 96 96 97 97 97 98 97 97 97 96 96 96 95 94 93 92 91 90 89 88 87 87 87 87 87 87 87 87 87 87 87 87 87 87 87 87 87 87 87 87 87 87 87 87 87 87 87 87 88 88 88 88 88 88
81 82 83 83 84 85 86 87 87 88 89 90 91 91 92 92 92 93 94 94 95 95 96 96 97 97 97 97 97 97 97 98 98 99 99 100 100 100 99 99 99 98 97 97 97 96 95 94 93 92 91 90 89 89 89 89 89 89 89 89 89 89 89 89 89 89 89 89 89 89 89 89 89 89 89 88 88 88 88 88 88 88 89 89 89 89
82 83 84 85 86 87 87 88 89 90 91 91 92 93 93 93 94 95 95 96 96 97 97 98 98 99 99 99 99 99 99 100 100 100 101 101 101 101 100 100 100 99 98 97 97 96 96 95 94 93 92 92 91 91 91 90 90 90 90 91 91 90 90 91 91 91 91 91 91 91 91 91 91 90 90 90 90 89 89 89 89 89 89 89 89 90
84 85 86 87 87 88 89 90 90 91 92 92 93 93 94 94 95 95 96 96 97 98 98 99 99 99 100 100 100 100 100 101 101 101 101 101 101 100 100 99 99 98 98 97 96 96 96 95 95 94 94 93 93 93 92 92 92 92 92 92 92 92 92 92 93 93 93 93 93 93 93 93 93 92 92 92 91 91 90 90 90 90 89 89 89 90
85 86 87 88 88 89 90 90 91 92 92 93 93 94 94 94 95 96 96 97 97 98 98 98 99 99 100 100 100 101 101 101 101 100 100 100 99 99 98 97 97 97 97 96 96 96 96 96 95 95 95 95 94 94 94 94 94 94 94 94 94 93 93 94 93 93 94 94 94 94 94 94 94 94 94 94 93 93 92 92 92 91 90 90 90 90
87 87 88 89 89 90 90 91 92 92 92 93 93 94 94 94 95 96 96 97 97 98 98 99 99 99 100 100 100 100 100 100 100 99 98 98 97 97 96 96 95 96 96 96 96 96 96 96 96 96 96 96 95 95 95 95 95 95 95 94 94 94 95 94 94 94 95 95 95 95 95 95 95 95 95 95 95 95 94 94 94 94 93 92 92 91
88 88 89 89 90 90 91 92 92 92 92 93 93 93 94 94 94 95 96 97 97 98 99 99 99 100 100 100 100 100 99 99 98 98 97 96 96 95 95 95 95 95 95 95 95 96 96 95 95 96 96 96 96 96 95 95 95 95 95 94 94 95 95 94 94 94 95 95 95 95 96 96 96 96 96 96 96 96 96 96 95 95 95 95 95 94
88 89 89 90 90 91 91 92 92 92 93 93 93 93 94 94 94 95 96 97 98 99 99 100 100 100 101 101 101 100 99 98 97 97 96 95 95 95 95 94 95 95 94 94 95 95 96 95 95 95 96 96 96 95 95 95 95 95 94 94 94 95 95 94 94 94 94 94 95 96 96 96 96 97 97 96 96 96 96 96 96 96 97 97 97 97
89 89 90 90 91 91 92 92 92 93 93 93 93 93 94 94 95 96 97 98 99 100 101 101 102 101 101 101 101 100 99 98 97 96 95 95 95 94 94 94 94 94 94 93 94 94 95 95 94 94 95 95 95 94 94 94 94 93 93 93 94 94 93 94 94 94 94 94 95 96 96 96 97 97 97 97 97 97 97 97 97 97 97 98 98 98
89 90 90 91 91 92 92 93 93 93 93 93 94 94 95 96 96 97 99 100 101 102 102 103 103 103 102 102 101 100 99 98 98 96 95 94 94 94 93 93 93 93 93 93 93 93 94 94 94 94 94 94 94 94 94 94 93 93 93 94 94 94 94 95 95 95 95 95 96 97 97 98 98 98 98 98 98 98 98 98 98 98 98 99 99 99
90 90 91 91 92 92 93 93 94 94 94 94 95 95 96 97 98 99 100 101 102 103 104 104 104 104 103 103 102 101 99 98 97 96 95 94 93 93 92 92 92 92 93 93 93 93 93 93 94 95 95 94 94 94 94 94 94 94 95 95 95 96 96 97 97 97 97 97 98 99 100 100 101 101 101 101 101 101 100 100 100 100 100 101 101 101
90 91 92 92 93 93 94 94 94 95 95 95 96 96 97 98 99 101 102 103 104 105 105 106 105 104 104 104 103 101 99 98 97 96 94 93 93 93 92 92 92 92 93 93 94 94 94 94 95 95 96 96 96 96 96 96 96 97 98 98 99 99 99 100 100 100 100 101 102 102 103 104 104 104 105 105 105 105 104 104 104 104 104 104 104 104
91 92 92 93 94 94 95 95 95 95 95 96 97 98 99 100 102 103 104 105 106 106 106 107 106 105 104 103 102 101 99 98 97 95 94 93 92 92 93 93 93 94 94 94 95 96 96 96 97 97 98 98 99 99 100 100 100 100 101 102 103 103 103 103 104 104 105 105 106 107 108 108 108 109 109 110 110 109 109 109 109 109 109 109 109 109
92 93 93 94 94 95 95 96 96 96 97 98 99 101 102 103 104 105 106 107 108 107 107 107 106 105 104 103 102 100 99 97 96 96 94 93 93 93 93 94 94 95 96 97 97 98 99 100 100 101 101 102 102 103 104 104 104 104 105 106 106 107 107 107 108 108 108 109 109 110 111 111 111 111 112 112 112 112 112 112 112 112 112 112 112 112
93 94 94 95 95 95 96 97 97 98 99 100 102 103 104 105 106 107 107 108 109 108 107 107 105 104 103 102 101 100 99 97 97 96 95 95 94 94 95 96 97 98 99 100 101 102 103 103 104 105 105 105 105 106 107 107 108 108 108 108 109 109 109 109 110 110 110 110 110 110 111 110 110 111 111 111 111 111 111 110 110 110 110 110 110 110
94 95 95 96 96 97 97 98 99 100 101 103 104 105 106 107 108 109 109 109 109 108 107 106 105 103 102 102 101 100 99 98 98 98 97 97 97 97 98 99 100 101 102 104 105 106 106 107 107 108 108 108 107 106 107 108 109 110 109 109 109 109 109 109 109 109 108 107 107 107 106 106 106 106 105 105 105 105 105 104 103 103 103 103 103 103
95 96 96 97 97 98 99 100 101 102 103 104 105 106 107 108 108 109 110 109 109 108 107 106 105 103 102 102 102 101 101 100 100 100 100 101 101 101 102 103 104 105 106 107 108 108 109 108 108 109 110 110 108 106 105 106 108 108 108 107 107 107 106 105 104 104 103 102 101 100 100 99 99 98 98 98 98 98 98 97 96 95 95 95 94 95
Wind_Direction
293 293 294 294 295 295 295 295 295 295 295 295 295 294 294 294 294 294 294 293 294 293 293 293 293 292 292 291 290 289 288 288 287 286 285 285 284 284 283 283 282 282 282 281 281 280 280 279 279 278 277 276 276 275 275 274 274 273 273 273 272 272 271 271 270 270 269 269 269 269 269 269 270 270 270 270 271 271 271 272 272 272 272 272 273 273
292 293 294 294 294 295 295 295 295 296 296 296 295 295 295 295 295 294 294 294 293 293 293 293 293 293 292 292 291 291 290 289 288 287 286 286 285 284 284 283 283 282 282 281 281 281 280 280 279 279 278 277 277 276 275 275 274 274 273 273 273 272 272 271 271 270 270 270 269 269 269 269 269 270 270 270 270 271 271 271 272 272 272 272 272 273
289 290 290 291 292 292 293 293 294 294 295 295 295 295 295 295 295 295 294 294 294 294 293 293 293 293 293 292 292 292 291 290 290 289 288 287 286 285 285 284 283 283 282 282 281 281 280 280 279 279 279 278 278 277 276 275 275 274 274 273 273 272 272 272 271 271 271 270 270 269 269 269 269 269 270 270 270 270 271 271 271 271 272 272 272 272
285 285 286 287 288 288 289 290 291 291 292 292 293 293 294 294 294 295 294 294 294 294 294 294 293 293 293 293 293 292 292 292 291 290 289 288 288 287 286 285 284 283 283 282 282 281 280 280 279 279 279 278 278 277 277 276 276 275 274 274 273 273 272 272 272 271 271 271 270 270 270 269 269 269 269 269 270 270 270 271 271 271 271 271 272 272
280 281 282 283 284 284 285 286 287 288 288 289 290 291 291 292 292 293 293 293 294 294 294 294 294 294 294 293 293 293 293 292 292 292 291 290 289 288 287 286 285 284 284 283 282 281 281 280 280 279 279 278 278 278 277 277 276 276 275 274 274 273 272 272 272 272 271 271 271 271 270 270 270 269 269 269 269 270 270 270 271 271 271 271 271 271
278 278 279 280 280 281 282 282 283 284 285 286 287 288 289 289 290 291 291 292 292 292 293 293 293 293 293 293 293 293 293 293 293 292 292 291 291 290 289 288 287 286 285 284 283 282 282 281 280 280 279 279 278 278 277 277 276 276 275 275 274 274 273 272 272 272 271 271 271 271 271 270 270 270 269 269 269 269 270 270 270 270 271 271 271 271
277 277 278 278 279 279 279 280 281 281 282 283 284 285 285 286 287 288 288 289 290 290 291 291 291 292 292 292 292 293 293 293 293 292 292 292 292 291 290 290 289 288 287 286 284 284 283 282 281 281 280 279 279 278 278 277 276 276 275 275 274 274 273 273 272 272 272 271 271 271 271 270 270 270 270 270 269 269 269 270 270 270 270 271 271 271
277 277 277 278 278 278 279 279 279 280 280 281 282 282 283 284 284 285 285 286 287 288 288 289 289 290 290 290 291 291 292 292 292 292 292 292 292 291 291 290 290 289 288 287 286 285 284 283 282 282 281 280 280 279 278 278 277 276 276 275 275 274 274 273 272 272 272 271 271 271 271 271 270 270 270 270 269 269 269 269 269 270 270 270 270 270
277 277 277 278 278 278 279 279 279 279 279 280 280 281 281 282 282 283 283 284 285 285 286 287 287 288 288 288 289 290 290 290 290 291 291 291 291 291 291 291 290 290 289 289 288 287 286 285 284 283 282 282 281 280 279 279 278 277 276 276 275 274 274 273 273 272 272 271 271 271 271 271 270 270 270 270 269 269 269 269 269 269 269 270 270 270
277 277 278 278 278 278 279 279 279 279 279 279 280 280 281 281 282 282 283 283 283 284 284 285 285 286 286 287 287 288 288 289 289 289 289 290 290 290 290 290 290 290 289 289 289 288 288 287 286 285 284 283 282 282 281 280 279 278 278 277 276 275 274 274 273 272 272 271 271 271 271 270 270 270 270 270 269 269 269 269 269 269 269 269 269 270
277 278 278 278 278 278 278 279 279 279 279 279 280 280 280 280 281 281 282 282 283 283 283 284 284 284 285 285 285 286 287 287 288 288 288 288 288 289 289 289 289 289 289 289 289 289 288 288 287 287 286 285 284 283 282 281 281 280 279 278 277 276 275 274 274 273 272 271 271 271 270 270 270 270 270 269 269 269 269 269 269 269 269 269 269 269
278 278 278 278 278 278 278 279 279 279 279 280 280 280 280 280 280 281 281 281 282 282 283 283 283 283 284 284 285 285 285 286 287 287 287 288 288 288 288 288 288 288 288 288 288 288 288 288 288 287 287 286 285 285 284 283 282 281 280 279 278 277 277 276 275 274 273 272 271 271 270 270 270 269 269 269 269 269 269 269 268 268 268 268 268 268
278 278 279 279 279 279 279 279 279 279 279 279 280 280 280 280 280 280 281 281 282 282 282 283 283 283 283 283 284 284 284 285 285 286 286 286 287 287 287 287 287 288 288 288 288 288 288 288 288 288 287 287 286 286 285 284 283 282 281 280 280 279 278 277 276 275 274 273 272 271 270 270 269 269 269 269 269 269 269 268 268 268 268 268 268 268
278 279 279 279 279 279 279 279 280 280 280 280 280 280 280 280 280 281 281 281 282 282 282 283 283 283 283 283 283 283 284 284 284 285 285 285 286 286 286 286 287 287 287 287 287 287 288 288 288 288 288 287 287 287 286 285 285 284 283 282 281 280 279 278 277 276 275 274 273 272 271 270 269 269 269 268 268 268 268 268 268 268 268 267 267 267
279 279 279 279 280 280 280 280 280 280 280 280 280 280 280 281 281 281 281 282 282 282 282 283 283 283 283 283 283 283 283 283 284 284 285 285 285 285 285 286 286 286 286 287 287 287 287 287 288 288 288 287 287 287 287 286 286 285 284 283 282 281 280 279 278 277 277 275 274 273 272 271 270 269 268 268 268 267 267 267 267 267 267 267 267 267
279 279 280 280 280 280 280 280 280 280 280 281 281 281 281 281 281 281 282 282 282 282 282 283 283 283 284 283 283 283 283 283 283 284 284 284 284 284 285 285 285 286 286 286 286 287 287 287 287 287 287 287 287 287 287 287 286 286 285 284 283 283 281 281 280 279 278 277 276 275 273 272 271 270 269 268 267 267 267 266 266 266 266 266 266 266
279 280 280 280 280 280 280 280 281 281 281 281 281 281 281 281 282 282 282 282 282 282 282 283 283 283 283 283 283 283 283 283 283 283 284 284 284 284 284 285 285 285 285 286 286 286 287 287 287 287 287 287 287 287 287 287 286 286 285 285 284 283 282 282 281 280 279 278 277 276 275 274 272 271 270 269 268 267 266 266 266 266 266 266 266 266
280 280 280 280 280 280 280 281 281 281 281 281 281 281 281 282 282 282 282 282 282 283 283 283 283 283 283 283 283 283 283 283 283 283 283 284 284 284 284 284 284 285 285 285 286 286 287 287 287 287 288 287 287 287 287 287 287 286 286 285 284 284 283 282 282 281 280 279 278 277 276 275 274 273 271 270 269 268 266 266 265 265 265 265 265 265
280 280 280 280 280 280 281 281 281 281 281 281 281 282 282 282 282 282 282 283 283 283 283 283 283 283 283 283 283 283 283 283 283 283 283 283 284 284 284 284 284 285 285 285 286 286 286 287 287 287 287 288 288 287 287 287 286 286 286 285 285 284 283 283 282 281 280 280 279 278 277 276 275 274 273 271 270 269 267 266 265 264 264 264 264 264
280 280 280 280 280 281 281 281 281 281 281 281 282 282 282 282 283 283 283 283 283 283 283 284 284 283 283 283 283 283 283 283 283 283 283 283 284 284 284 284 284 285 285 285 285 286 286 287 287 287 287 287 287 287 287 287 286 286 285 285 284 284 283 283 282 282 281 280 279 278 277 276 275 274 273 272 271 270 269 267 266 265 264 263 263 263
280 280 280 280 281 281 281 281 281 281 281 282 282 282 282 283 283 283 283 284 284 284 284 284 284 284 284 284 283 283 283 283 283 283 282 283 283 283 284 284 284 285 285 285 285 286 286 287 287 287 287 287 287 287 287 287 286 286 285 285 284 284 283 283 282 282 281 280 280 279 278 277 276 275 274 273 272 271 270 269 267 266 265 264 263 262
280 280 280 280 280 281 281 281 281 281 281 282 282 283 283 283 283 284 284 284 284 284 284 284 284 284 284 284 284 284 283 283 283 283 282 282 282 283 283 284 284 284 285 285 286 286 286 287 287 287 287 287 287 287 287 286 286 286 285 285 284 284 283 282 282 281 281 280 280 279 278 278 277 276 275 274 273 272 271 270 268 267 266 265 264 262
280 280 280 280 280 281 281 281 281 282 282 282 282 283 283 284 284 284 284 284 284 284 284 284 284 284 284 284 284 284 284 283 283 283 283 282 282 282 283 283 284 284 285 285 286 286 286 287 287 287 287 287 287 286 286 286 286 285 285 284 284 283 283 282 282 281 281 280 280 279 279 278 277 276 276 275 274 273 272 271 269 268 267 266 265 264
280 280 280 280 280 280 281 281 281 282 282 282 283 283 283 284 284 284 284 284 284 284 285 285 285 285 284 284 284 284 284 284 284 283 283 283 283 282 283 283 284 284 285 285 286 286 286 287 287 287 287 287 287 286 286 286 285 285 284 284 283 283 282 282 281 281 280 280 279 279 278 278 277 277 276 275 274 273 272 271 270 269 268 267 266 265
280 280 280 280 280 281 281 281 282 282 283 283 283 284 284 284 284 284 284 285 285 285 285 285 285 285 285 285 285 285 284 284 284 284 284 284 283 283 283 284 284 285 285 285 286 286 287 287 287 287 287 287 287 286 286 285 285 285 284 284 283 282 282 281 281 280 280 280 279 279 278 278 277 277 276 276 275 274 273 272 271 270 269 268 267 266
280 280 280 280 281 281 281 282 282 283 283 284 284 284 285 285 285 285 285 285 286 286 286 286 285 285 285 285 285 285 285 285 285 285 285 285 284 284 284 284 285 285 285 285 286 286 287 287 287 287 287 287 287 286 286 286 285 285 284 283 283 282 282 281 281 280 280 279 279 278 278 278 277 277 276 276 275 274 274 273 272 271 270 269 268 267
281 281 281 281 281 282 282 283 283 284 284 284 285 285 285 286 286 286 286 286 287 287 287 287 286 286 286 286 286 286 286 286 286 286 286 286 286 286 285 286 286 286 286 286 286 286 287 287 287 287 287 287 287 287 286 286 285 285 284 283 283 282 282 281 281 280 279 279 278 278 278 277 277 276 276 275 275 275 274 273 273 272 271 270 269 268
281 281 282 282 282 283 283 284 284 285 285 286 286 286 286 287 288 288 288 288 288 288 288 288 287 287 287 287 287 287 287 287 287 287 287 287 287 287 287 287 287 287 287 287 287 287 287 287 287 287 287 287 287 287 286 286 285 285 284 284 283 282 282 281 280 280 279 279 278 278 277 277 276 276 276 275 275 274 274 273 273 272 271 270 270 269
282 282 283 283 284 284 284 285 285 286 287 287 287 288 288 288 289 289 289 289 289 290 289 289 289 289 288 288 288 288 288 288 288 288 288 288 288 288 288 288 288 288 288 287 287 287 287 287 287 287 287 287 287 286 286 286 285 285 284 283 283 282 282 281 280 280 279 279 278 278 277 277 276 276 275 275 275 274 274 273 273 272 272 271 270 269
283 283 284 284 285 285 286 286 287 288 288 289 289 289 290 290 290 290 290 291 291 291 291 291 290 290 290 290 289 289 289 289 289 289 289 289 289 289 289 289 289 289 288 288 288 287 287 286 286 287 287 286 286 286 286 285 285 284 284 283 283 282 282 281 280 280 279 279 278 277 277 276 276 275 275 275 274 274 274 273 273 272 272 271 270 270
284 285 285 286 286 287 288 288 289 289 290 290 291 291 291 292 292 292 292 293 293 293 293 293 292 292 292 291 291 291 291 290 290 290 290 290 290 290 290 290 290 289 289 289 289 288 287 286 286 286 286 286 286 285 285 285 284 284 283 283 282 282 281 281 280 280 279 278 278 277 277 276 276 275 275 274 274 274 273 273 272 272 272 271 270 270
286 286 287 288 288 289 290 290 291 291 292 292 292 293 293 294 294 294 295 295 295 295 294 294 294 293 293 293 293 293 292 292 291 291 291 291 291 291 291 291 290 290 290 289 289 289 288 287 286 286 286 285 285 285 284 284 283 283 283 282 282 281 281 280 280 279 279 278 277 277 276 276 275 275 274 274 273 273 273 272 272 271 271 271 270 270
288 288 289 290 291 291 292 292 293 293 294 294 294 295 295 295 296 296 296 296 296 296 296 296 295 295 295 294 294 293 293 293 293 293 292 292 292 292 291 291 291 290 290 290 289 289 288 288 287 287 286 285 285 284 284 283 283 282 282 281 281 281 280 280 279 278 278 277 277 276 276 275 275 274 274 273 273 273 272 272 271 271 271 270 270 269
290 290 291 292 293 293 294 294 295 295 295 295 296 296 296 296 297 297 297 297 297 297 297 297 296 296 296 295 295 294 294 294 294 293 293 293 293 292 292 292 291 291 290 290 289 289 288 288 287 287 286 286 285 284 284 283 282 282 281 281 280 280 279 279 278 278 277 277 276 276 275 275 274 274 273 273 272 272 272 271 271 271 270 270 269 269
292 292 293 293 294 294 295 295 295 296 296 296 296 296 297 297 297 297 298 298 298 298 298 297 297 297 296 296 295 295 295 294 294 294 294 293 293 293 292 292 291 291 290 290 289 288 288 288 287 287 286 286 285 284 284 283 282 282 281 281 280 280 279 279 278 277 277 276 275 275 274 274 273 273 273 272 272 272 271 271 270 270 270 269 269 268
293 293 294 294 294 295 295 295 295 295 296 296 296 296 296 297 297 297 297 297 297 297 297 297 297 297 296 296 296 295 295 294 294 294 294 293 293 293 292 292 291 290 290 289 289 288 288 287 287 287 286 285 285 284 284 283 282 282 281 281 280 280 279 278 278 277 276 276 275 274 274 273 273 272 272 271 271 271 270 270 270 270 269 269 269 268
293 293 293 294 294 294 294 294 294 295 295 295 295 296 296 296 296 296 296 296 296 297 297 297 296 296 296 296 295 295 295 294 294 294 293 293 293 292 292 291 291 290 289 289 288 288 287 287 287 286 286 285 284 284 283 283 282 281 281 280 280 279 279 278 278 277 276 275 275 274 273 273 272 272 271 271 270 270 270 269 269 269 269 268 268 268
292 292 292 293 293 293 293 293 293 294 294 294 294 294 295 295 295 295 295 295 295 296 296 296 295 295 295 295 295 294 294 294 294 293 293 292 292 291 291 290 290 289 289 288 288 287 287 286 286 285 285 285 284 284 283 282 282 281 281 280 279 279 278 278 277 277 276 275 275 274 274 273 272 272 271 271 270 270 269 269 268 268 268 268 267 267
291 291 291 291 291 291 292 292 292 293 293 293 293 293 293 294 294 294 294 294 294 294 294 294 294 294 294 294 294 294 294 293 293 293 292 292 291 291 290 289 289 288 288 287 287 287 286 286 286 285 284 284 284 283 283 282 282 281 280 280 279 278 278 277 277 276 276 275 275 274 274 273 273 272 271 271 270 270 269 268 268 268 267 267 266 266
289 289 290 290 290 290 291 291 291 292 292 292 292 292 293 293 293 293 293 293 293 293 293 293 293 293 293 293 293 293 293 293 293 292 292 291 291 290 289 289 288 288 287 287 287 286 286 286 285 285 284 284 283 283 282 282 281 281 280 280 279 278 277 277 276 276 276 275 275 274 274 273 273 272 272 271 271 270 270 269 268 268 267 267 266 266
288 288 288 289 289 289 290 290 291 291 291 291 292 292 292 292 292 292 292 293 293 293 293 293 293 293 293 293 293 293 293 293 292 292 291 291 290 290 289 289 288 288 287 287 287 286 286 286 285 285 284 284 283 283 282 282 281 281 280 280 279 278 278 277 277 276 276 275 275 275 274 274 273 273 272 271 271 271 270 270 269 268 268 267 266 266
287 287 287 288 289 289 289 290 290 290 291 291 291 291 291 291 292 292 292 292 292 293 292 292 292 292 293 292 292 293 293 293 292 292 291 291 290 290 289 289 288 288 287 287 287 286 286 286 285 285 285 284 284 283 283 282 282 281 281 280 279 279 278 278 277 276 276 276 275 275 275 274 274 273 272 272 271 271 271 270 270 269 269 268 267 266
286 287 287 288 289 289 289 290 290 290 290 290 290 291 291 291 292 292 293 293 293 293 293 293 293 293 293 293 293 293 293 292 292 292 291 291 290 290 289 289 288 288 287 287 287 286 286 286 285 285 285 284 284 284 283 283 282 281 281 280 280 279 279 278 277 277 277 276 276 276 275 275 274 274 273 273 272 272 271 271 270 270 269 269 268 267
286 287 288 288 289 289 289 289 289 289 289 290 290 290 291 292 292 293 294 294 295 295 295 294 294 294 294 293 293 293 293 292 292 291 291 290 290 289 289 289 288 288 287 287 287 286 286 286 286 285 285 284 284 284 283 283 282 282 281 281 280 280 280 279 278 278 278 277 277 276 276 276 275 275 274 274 273 273 272 271 271 270 270 270 269 269
287 287 288 288 289 289 289 289 289 289 289 290 290 291 292 293 294 295 295 296 296 296 296 295 295 295 294 294 293 293 293 292 292 291 290 290 289 289 288 288 288 287 287 287 286 286 286 286 285 285 285 284 284 284 283 283 283 282 282 281 281 280 280 279 279 279 279 278 277 277 277 276 276 276 275 275 274 273 273 272 272 271 271 270 270 269
287 288 288 289 289 289 289 289 289 289 290 290 291 292 293 294 295 296 297 297 297 297 297 296 296 295 295 294 293 293 292 292 291 290 290 289 289 288 288 288 287 287 287 286 286 286 286 285 285 285 285 285 284 284 284 283 283 283 282 282 281 281 280 280 280 280 279 279 278 278 277 277 277 277 276 275 275 274 274 273 273 272 271 271 270 270
287 288 288 289 289 289 289 289 289 290 290 291 292 292 293 295 296 297 297 298 298 298 297 297 296 295 294 294 293 292 292 291 290 290 289 288 288 288 287 287 287 286 286 286 286 286 285 285 285 285 285 285 284 284 284 284 283 283 283 282 282 282 281 281 281 280 280 280 279 279 278 278 278 277 277 276 276 275 274 274 273 273 272 272 271 271
288 288 289 289 289 290 290 290 290 290 291 291 292 293 294 295 296 297 297 298 298 298 297 296 296 295 294 293 292 292 291 290 290 289 288 288 287 287 286 286 286 286 286 286 285 285 285 285 285 285 285 285 285 285 284 284 284 284 283 283 283 282 282 282 281 281 281 280 280 280 279 279 279 278 278 277 277 276 275 275 274 273 273 272 272 271
289 289 290 290 290 290 290 290 290 291 291 292 293 294 294 295 296 297 297 298 298 297 297 296 295 294 293 292 292 291 290 290 289 289 288 287 287 286 286 286 285 285 285 285 285 285 285 285 285 285 285 285 285 285 285 285 284 284 284 284 283 283 283 283 282 282 282 281 281 281 280 280 280 279 279 278 278 277 276 276 275 274 274 273 273 272
289 290 290 290 290 290 290 290 291 291 292 292 293 294 294 295 296 296 297 297 297 297 296 295 294 293 292 291 291 290 290 289 289 288 288 287 286 286 286 285 285 285 285 285 285 285 285 285 285 285 285 285 285 285 285 285 285 285 284 284 284 284 284 284 283 283 283 282 282 282 281 281 281 280 280 280 279 278 278 277 276 276 275 274 273 273
290 290 290 290 290 290 290 291 291 292 292 293 293 294 295 295 296 296 296 296 296 295 295 294 293 292 291 290 290 290 289 289 288 288 287 287 286 286 286 285 285 285 285 285 285 285 285 285 285 285 285 285 285 285 286 285 285 285 285 285 285 284 284 284 284 284 284 283 283 283 282 282 282 281 281 281 280 279 279 278 277 277 276 275 274 274